Weather History for Harlan, KY

Change the Weather History Date:

Monday, September 3, 2012

  Actual Average (KLOZ) Record (KLOZ)
Temperature  
Mean Temperature 71 °F 73 °F  
Max Temperature 73 °F 84 °F 96 °F (2011)
Min Temperature 69 °F 62 °F 47 °F (1967)
Degree Days  
Heating Degree Days 0 0  
Month to date heating degree days 0  
Since 1 July heating degree days 1  
Cooling Degree Days 6 8  
Month to date cooling degree days 24  
Year to date cooling degree days 1048  
Growing Degree Days 21 (Base 50)    
Moisture  
Dew Point 67 °F    
Average Humidity 87    
Maximum Humidity 100    
Minimum Humidity 73    
Precipitation  
Precipitation 0.00 in 0.10 in 1.86 in (1962)
Month to date precipitation 0.31  
Year to date precipitation 32.99  
Sea Level Pressure  
Sea Level Pressure 29.97 in    
Wind  
Wind Speed 2 mph ()    
Max Wind Speed 7 mph    
Max Gust Speed -    
Visibility 7.3 miles    
Events      
T = Trace of Precipitation, MM = Missing Value Source: Averaged Metar Reports

Daily Weather History Graph

Daily Weather History Graph

Search for Another Location

Airport:

Trip Planner

Search our weather history database for the weather conditions in past years. The results will help you decide how hot, cold, wet, or windy it might be!

Date:

Astronomy

Sep. 03, 2012 Rise Set
Actual Time 7:06 AM EDT 7:58 PM EDT
Civil Twilight 6:39 AM EDT 8:24 PM EDT
Nautical Twilight 6:08 AM EDT 8:55 PM EDT
Astronomical Twilight 5:36 AM EDT 9:27 PM EDT
Moon 9:23 PM EDT (9/3) 10:06 AM EDT (9/3)
Length of Visible Light 13h 44m
Length of Day
12h 51m
Waning Gibbous, 90% of the Moon is Illuminated
Sep 3
Waning Gibbous
Sep 8
Last Quarter
Sep 15
New
Sep 22
First Quarter
Sep 29
Full

Hourly Weather History & Observations

Time (EDT) Temp. Dew Point Humidity Pressure Visibility Wind Dir Wind Speed Gust Speed Precip Events Conditions
12:15 AM 71.6 °F 66.2 °F 83% 29.97 in 10.0 mi North - - N/A   Overcast
12:35 AM 71.6 °F 66.2 °F 83% 29.97 in 10.0 mi North - - N/A   Overcast
12:55 AM 71.6 °F 66.2 °F 83% 29.97 in 10.0 mi North - - N/A   Overcast
1:15 AM 71.6 °F 66.2 °F 83% 29.98 in 10.0 mi North - - N/A   Overcast
1:35 AM 69.8 °F 66.2 °F 88% 29.97 in 10.0 mi North - - N/A   Overcast
1:55 AM 69.8 °F 66.2 °F 88% 29.97 in 10.0 mi North - - N/A   Overcast
2:15 AM 71.6 °F 64.4 °F 78% 29.97 in 10.0 mi North - - N/A   Overcast
2:35 AM 69.8 °F 64.4 °F 83% 29.97 in 10.0 mi North - - N/A   Overcast
2:55 AM 69.8 °F 64.4 °F 83% 29.96 in 10.0 mi South 5.8 mph - N/A   Overcast
3:15 AM 69.8 °F 64.4 °F 83% 29.96 in 10.0 mi Calm Calm - N/A   Overcast
3:35 AM 69.8 °F 64.4 °F 83% 29.95 in 10.0 mi North - - N/A   Overcast
3:55 AM 69.8 °F 64.4 °F 83% 29.95 in 10.0 mi North - - N/A   Mostly Cloudy
4:15 AM 69.8 °F 64.4 °F 83% 29.95 in 10.0 mi North - - N/A   Scattered Clouds
4:35 AM 69.8 °F 64.4 °F 83% 29.95 in 10.0 mi North - - N/A   Mostly Cloudy
4:55 AM 69.8 °F 64.4 °F 83% 29.95 in 10.0 mi SSE 5.8 mph - N/A   Overcast
5:15 AM 69.8 °F 62.6 °F 78% 29.96 in 10.0 mi North - - N/A   Overcast
5:35 AM 69.8 °F 64.4 °F 83% 29.95 in 10.0 mi North - - N/A   Overcast
5:55 AM 69.8 °F 64.4 °F 83% 29.95 in 10.0 mi North - - N/A   Overcast
6:15 AM 69.8 °F 64.4 °F 83% 29.95 in 10.0 mi North - - N/A   Overcast
6:35 AM 69.8 °F 64.4 °F 83% 29.95 in 10.0 mi North - - N/A   Overcast
6:55 AM 69.8 °F 64.4 °F 83% 29.96 in 10.0 mi North - - N/A   Overcast
7:15 AM 69.8 °F 64.4 °F 83% 29.96 in 10.0 mi North - - N/A   Overcast
7:35 AM 69.8 °F 64.4 °F 83% 29.96 in 10.0 mi North - - N/A   Overcast
7:55 AM 69.8 °F 64.4 °F 83% 29.96 in 10.0 mi Calm Calm - N/A   Overcast
8:15 AM 69.8 °F 64.4 °F 83% 29.96 in 10.0 mi Calm Calm - N/A   Mostly Cloudy
8:35 AM 69.8 °F 64.4 °F 83% 29.96 in 10.0 mi North - - N/A   Overcast
8:55 AM 71.6 °F 64.4 °F 78% 29.97 in 10.0 mi North - - N/A   Overcast
9:15 AM 73.4 °F 64.4 °F 73% 29.97 in 10.0 mi SSW 3.5 mph - N/A   Overcast
9:35 AM 73.4 °F 64.4 °F 73% 29.97 in 10.0 mi North - - N/A   Overcast
9:55 AM 73.4 °F 64.4 °F 73% 29.97 in 10.0 mi North - - N/A   Overcast
10:15 AM 73.4 °F 64.4 °F 73% 29.99 in 10.0 mi North - - N/A   Overcast
10:35 AM 73.4 °F 64.4 °F 73% 29.99 in 10.0 mi ESE 5.8 mph - N/A   Overcast
10:55 AM 73.4 °F 64.4 °F 73% 29.99 in 10.0 mi North - - N/A   Overcast
11:15 AM 71.6 °F 64.4 °F 78% 29.99 in 10.0 mi East 4.6 mph - N/A   Overcast
11:35 AM 71.6 °F 66.2 °F 83% 30.00 in 7.0 mi North - - N/A   Overcast
11:55 AM 71.6 °F 66.2 °F 83% 30.00 in 10.0 mi North - - N/A   Overcast
12:15 PM 69.8 °F 68.0 °F 94% 30.00 in 3.0 mi Calm Calm - N/A   Overcast
12:35 PM 69.8 °F 68.0 °F 94% 30.00 in 2.5 mi Calm Calm - N/A   Overcast
12:55 PM 69.8 °F 68.0 °F 94% 30.00 in 4.0 mi North - - N/A   Overcast
1:15 PM 69.8 °F 68.0 °F 94% 30.00 in 4.0 mi North - - N/A   Overcast
1:35 PM 69.8 °F 68.0 °F 94% 30.00 in 3.0 mi Calm Calm - N/A   Overcast
1:55 PM 69.8 °F 68.0 °F 94% 30.00 in 2.5 mi Calm Calm - N/A   Overcast
2:15 PM 69.8 °F 68.0 °F 94% 30.00 in 4.0 mi Calm Calm - N/A   Overcast
2:35 PM 69.8 °F 68.0 °F 94% 30.00 in 3.0 mi NNE 3.5 mph - N/A   Overcast
2:55 PM 69.8 °F 68.0 °F 94% 29.99 in 7.0 mi Calm Calm - N/A   Overcast
3:15 PM 69.8 °F 68.0 °F 94% 29.97 in 10.0 mi Calm Calm - N/A   Overcast
3:35 PM 71.6 °F 68.0 °F 88% 29.97 in 10.0 mi Calm Calm - N/A   Overcast
3:55 PM 71.6 °F 68.0 °F 88% 29.96 in 10.0 mi Calm Calm - N/A   Overcast
4:15 PM 71.6 °F 68.0 °F 88% 29.96 in 10.0 mi Calm Calm - N/A   Overcast
4:35 PM 71.6 °F 69.8 °F 94% 29.96 in 10.0 mi Calm Calm - N/A   Overcast
4:55 PM 71.6 °F 68.0 °F 88% 29.96 in 10.0 mi NNE 6.9 mph - N/A   Overcast
5:15 PM 71.6 °F 69.8 °F 94% 29.96 in 10.0 mi Calm Calm - N/A   Overcast
5:35 PM 71.6 °F 69.8 °F 94% 29.96 in 3.0 mi Calm Calm - N/A   Overcast
5:55 PM 71.6 °F 69.8 °F 94% 29.95 in 5.0 mi Calm Calm - N/A   Overcast
6:15 PM 71.6 °F 68.0 °F 88% 29.96 in 10.0 mi NE 4.6 mph - N/A   Mostly Cloudy
6:35 PM 71.6 °F 69.8 °F 94% 29.95 in 7.0 mi Calm Calm - N/A   Mostly Cloudy
6:55 PM 71.6 °F 69.8 °F 94% 29.95 in 10.0 mi Calm Calm - N/A   Mostly Cloudy
7:15 PM 71.6 °F 69.8 °F 94% 29.95 in 7.0 mi Calm Calm - N/A   Scattered Clouds
7:35 PM 71.6 °F 69.8 °F 94% 29.94 in 7.0 mi NNE 6.9 mph - N/A   Scattered Clouds
7:55 PM 69.8 °F 69.8 °F 100% 29.94 in 5.0 mi North - - N/A   Clear
8:15 PM 69.8 °F 68.0 °F 94% 29.95 in 1.2 mi North - - N/A   Mostly Cloudy
8:35 PM 69.8 °F 69.8 °F 100% 29.95 in 0.2 mi North - - N/A   Overcast
8:55 PM 69.8 °F 68.0 °F 94% 29.96 in 1.0 mi Calm Calm - N/A   Overcast
9:15 PM 69.8 °F 68.0 °F 94% 29.96 in 0.5 mi ENE 3.5 mph - N/A   Overcast
9:35 PM 69.8 °F 68.0 °F 94% 29.97 in 1.0 mi North - - N/A   Overcast
9:55 PM 69.8 °F 68.0 °F 94% 29.97 in 2.0 mi North - - N/A   Overcast
10:15 PM 69.8 °F 68.0 °F 94% 29.97 in 1.2 mi Calm Calm - N/A   Overcast
10:35 PM 69.8 °F 68.0 °F 94% 29.97 in 0.5 mi Calm Calm - N/A   Overcast
10:55 PM 69.8 °F 68.0 °F 94% 29.97 in 0.5 mi North - - N/A   Overcast
11:15 PM 69.8 °F 68.0 °F 94% 29.98 in 0.2 mi North - - N/A   Overcast
11:35 PM 69.8 °F 68.0 °F 94% 29.97 in 0.5 mi Calm Calm - N/A   Overcast
11:55 PM 69.8 °F 68.0 °F 94% 29.97 in 2.5 mi North - - N/A   Overcast